{"data":{"norad_id":62929,"epoch":"2026-09-22T16:48:23.958720Z","epoch_age_seconds":125438,"freshness":"FRESH","line1":"1 62929U 25028B   26265.70027730  .00000805  00000+0  13158-3 0  9995","line2":"2 62929  98.1148 320.1666 0002828 336.4278  23.6800 14.73578542 86973","mean_motion":14.73578542,"eccentricity":0.0002828,"inclination_deg":98.1148,"raan_deg":320.1666,"arg_perigee_deg":336.4278,"mean_anomaly_deg":23.68,"bstar":0.00013158,"rev_number":8697,"period_min":97.721292686956,"perigee_km":647.6796656276,"apogee_km":651.65459164275,"semimajor_km":7027.8041286352,"source":"CELESTRAK","updated_at":"2026-09-23T09:00:21.726421Z"}}